Location: Unspecified
(54.1780°N, 0.0000°E)
Time: 16:41:16
(UTC+00:00)

Altair - Pass Details

Date: 18 June 2019
Orbit: 1501 x 1683 km, 47.2° (Epoch: 21 July)

Event Time Altitude Azimuth Distance (km) Brightness Sun altitude
Rises 20:07:55 0° 207° (SSW) 4,719 9.9 2.3°
Reaches altitude 10° 20:11:25 10° 197° (SSW) 3,764 9.3 1.9°
Maximum altitude 20:19:17 30° 141° (SE) 2,586 8.2 1.0°
Drops below altitude 10° 20:27:24 10° 85° (E) 3,893 9.2 0.1°
Sets 20:31:04 0° 76° (ENE) 4,904 9.8 -0.3°
